map of REP home
Great Circle Mapper logo
REP - Airport
Location
City:  Siem Reap, Cambodia
Name:Angkor International Airport
ICAO / IATA:VDSR / REP

Details
Type:Airport (Aerodrome, Airfield)
Use:International (customs port of entry)
Latitude:1324'38"N (13.410666)
Longitude:10348'46"E (103.812840)
Datum:WGS 1984
Elevation:60 ft (18 m)
Runways:1
Longest:8366 × 148 ft (2550 × 45 m), paved

Time
Time Zone:UTC+7
Local Time:

Weather
METAR:VDSR 301230Z 08006KT 9000 SCT017 FEW018CB 29/26 Q1009 CB NE E
TAF:VDSR 292300Z 3000/3018 09007KT 9999 SCT017
BECMG 3001/3002 VRB04KT
TEMPO 3007/3012 5000 RA SCT015 FEW017CB SCT040

Related Locations
Nearby:
Farthest:PIO: 12447 mi / 20032 km
Pisco, PE

Find:

   beyond  
but within

Other Information
Maps:
NOTAMs:
Links:
Sources:

  
flag of Cambodia   

Sectional Chart

Flight Planning
at skyvector.com

Satellite Image

Google Maps Satellite View

 

Copyright © 2004-2014 Karl L. Swartz. All rights reserved.
The Great Circle Mapper name and logo are trademarks of the Great Circle Mapper.
All other trademarks mentioned herein belong to their respective owners.
Please see credits for attibutions and further copyright information.

  Follow gcmap on Facebook Follow gcmap on Twitter

hCard Microformat

Geo Microformat